SCP
0 0 0 0 0 0 0 0 0 0 0 0 0 0 0 0 0 0 0 0 0 0 0 0 -0 0 0 0 0 0 0 0 0 0 0 0 0 0 0 0 0 0 0
0 0 0 0 0 0 0 0 0 0 0 0 0 0 0 0 0 0 0 0 0 0 0 0 0 0 0 0 0 0 0 0 0 0 0 0 0 0 0 0 0 0 0
0 0 0 0 0 0 0 0 0 0 0 0 0 0 0 0 0 0 0 0 0 0 0 -0 -0 0 0 0 0 0 0 0 0 0 0 0 0 0 0 0 0 0 0
0 0 0 0 0 0 0 0 0 0 0 0 0 0 0 0 0 0 0 0 0 0 0 0 0 0 0 0 0 -0 0 0 0 0 0 0 0 0 0 0 0 0 0
0 0 0 0 0 0 0 0 0 0 0 0 0 0 0 0 0 0 0 0 0 0 0 0 0 0 0 0 0 -0 0 0 0 0 0 0 0 0 0 0 0 0 0
0 0 0 0 0 0 0 0 0 0 0 0 0 0 0 0 0 0 0 0 0 0 0 0 0 0 0 0 0 0 0 0 0 0 0 0 0 0 0 0 0 0 0
0 0 0 0 0 0 0 0 0 0 0 0 0 0 0 0 -0 0 0 0 0 0 -0 0 0 0 -0 0 0 0 0 0 0 0 0 0 0 0 0 0 0 0 0
0 0 0 0 0 0 0 0 0 0 0 0 0 0 -0 0 0 -0 0 0 0 0 0 0 -0 0 0 -0 0 0 0 0 0 0 0 0 0 0 -0 0 -0 0 0
0 0 0 0 0 0 0 0 0 0 0 0 0 0 -0 -0 -0 -0 -0 -0 0 0 0 0 0 0 0 0 0 0 0 0 0 0 0 0 0 0 0 0 0 -0 0
0 0 0 0 0 0 0 0 0 0 0 0 0 0 -0 -0 -0 -0 -0 -0 -0 0 0 0 0 0 0 0 0 0 0 0 0 0 0 0 0 0 0 0 0 0 0
0 0 0 0 0 0 0 0 0 0 0 0 0 -0 -0 -0 -0 -0 -0 -0 -0 -0 0 0 0 0 0 -0 -0 -0 -0 -0 -0 0 -0 -0 0 0 0 0 0 0 0
0 0 0 0 0 0 0 -0 0 0 0 0 0 -0 0 -0 0 -0 -0 -0 -0 0 0 0 -0 0 -0 -0 0 -0 -0 -0 -0 -0 -0 0 0 0 0 0 0 0 0
0 0 0 0 0 0 0 0 0 0 0 0 0 0 0 0 0 -0 -0 -0 0 0 0 -0 -0 -0 -0 -0 -0 -0 -0 0 -0 0 0 -0 0 0 0 0 0 -0 -0
0 0 0 0 0 0 0 0 0 0 0 -0 0 0 0 0 0 0 0 -0 0 -0 -0 -0 -0 -0 -0 -0 -0 -0 -0 0 -0 0 -0 0 -0 -0 -0 -0 -0 -0 -0
0 0 0 0 0 0 0 0 0 0 0 0 -0 -0 0 0 0 0 0 0 -0 -0 -0 -0 0 0 0 0 0 0 0 -0 -0 -0 -0 -0 0 -0 -0 -0 -0 -0 0
0 0 0 0 0 0 0 0 0 0 0 0 -0 -0 -0 -0 -0 -0 -0 -0 -0 -0 -0 0 -0 -0 -0 0 0 -0 -0 0 0 0 0 -0 -0 -0 -0 -0 -0 0 0
0 0 0 0 0 0 0 0 0 0 0 0 0 -0 -0 -0 -0 -0 0 0 0 0 0 -0 0 0 0 0 0 0 -0 -0 -0 -0 -0 -0 0 -0 -0 -0 -0 0 0
0 0 0 0 0 0 0 0 0 0 0 0 0 0 -0 -0 -0 -0 -0 0 -0 -0 -0 0 0 -0 0 0 0 0 -0 -0 -0 -0 -0 -0 -0 0 0 0 0 0 0
0 0 0 0 0 0 0 0 0 0 0 0 0 0 0 0 0 -0 -0 -0 -0 0 0 -0 0 0 0 -0 -0 -0 0 0 0 0 0 0 0 0 0 0 0 0 0
0 0 0 0 0 0 0 0 0 0 0 0 0 0 0 0 0 0 0 0 0 0 0 0 0 0 0 0 0 0 0 0 0 0 0 0 0 0 0 0 0 0 0
0 0 0 0 0 0 0 0 0 0 0 0 0 0 0 0 0 0 0 0 0 0 0 0 0 0 0 0 0 0 0 0 0 0 0 0 0 0 0 0 0 0 0
0 0 0 0 0 0 0 0 0 0 0 0 0 0 0 0 0 0 0 0 0 0 0 0 0 0 0 0 0 0 0 0 0 0 0 0 0 0 0 0 0 0 0
0 0 0 0 0 0 0 0 0 0 0 0 0 0 0 0 0 0 0 0 0 0 0 0 0 0 0 0 0 0 0 0 0 0 0 0 0 0 0 0 0 0 0
0 0 0 0 0 0 0 0 0 0 0 0 0 0 0 0 0 0 0 0 0 0 0 0 0 0 0 0 0 0 0 0 0 0 0 0 0 0 0 0 0 0 0
0 0 0 0 0 0 0 0 0 0 0 0 0 0 0 0 0 0 0 0 0 0 0 0 0 0 0 0 0 0 0 0 0 0 0 0 0 0 0 0 0 0 0
0 0 0 0 0 0 0 0 0 0 0 0 0 0 0 0 0 0 0 0 0 0 0 0 0 0 0 0 0 0 0 0 0 0 0 0 0 0 0 0 0 0 0
Wind_Speed_500mb
34 29 28 24 23 31 37 42 48 38 36 33 39 43 41 36 30 28 28 16 12 17 31 47 48 52 56 67 72 70 74 72 70 68 56 51 45 41 38 35 31 27 24
41 31 26 21 21 29 34 40 36 34 34 37 36 36 40 34 24 28 25 5 5 13 27 56 49 47 52 58 58 74 81 74 71 72 60 43 47 41 37 30 32 29 25
45 32 23 16 18 24 30 37 29 29 31 39 39 31 31 31 34 32 19 6 7 9 23 41 54 41 53 63 56 73 69 84 70 61 65 52 26 50 38 41 35 29 23
39 29 22 13 14 17 24 31 26 27 31 37 35 31 35 34 35 32 16 10 11 15 32 42 22 63 76 57 49 63 62 80 81 72 59 44 71 50 27 37 37 30 28
35 29 20 11 10 12 16 27 29 23 25 29 29 28 28 30 32 38 37 38 36 39 51 40 54 48 67 66 52 63 84 68 82 69 67 39 63 55 66 50 46 38 32
35 28 19 11 5 9 14 20 24 20 23 23 28 23 26 27 25 28 33 28 34 37 43 46 44 52 60 45 35 53 61 68 71 70 73 62 68 61 64 55 49 39 33
33 28 21 12 4 6 11 15 20 18 19 21 24 19 20 26 21 30 31 37 35 41 42 35 47 57 36 30 30 54 70 72 74 71 69 56 54 66 57 53 58 48 40
34 29 21 13 7 4 7 12 18 16 14 17 20 20 19 20 18 16 27 33 38 34 34 35 46 36 22 27 35 51 66 67 67 67 68 54 52 55 49 40 50 49 34
38 31 24 16 9 1 3 9 15 15 11 5 13 16 17 18 17 19 23 32 34 36 31 33 31 34 33 27 28 43 51 72 62 66 64 57 50 42 38 40 46 37 36
39 35 28 20 12 5 5 6 9 16 9 8 12 13 13 15 19 19 20 26 28 29 33 33 36 35 31 32 38 56 47 60 64 68 67 54 44 37 28 36 48 37 26
42 37 30 24 17 10 7 8 6 13 19 16 17 16 14 11 18 27 27 21 20 20 28 26 29 24 27 33 29 50 55 55 60 60 62 50 51 49 30 37 49 29 21
39 36 33 29 23 17 11 14 13 6 15 17 20 20 22 19 19 24 23 30 27 24 23 30 27 23 25 30 36 48 53 51 51 49 54 47 39 36 38 42 39 31 21
43 42 41 37 29 24 17 19 18 14 11 17 23 17 19 19 19 23 30 28 27 27 29 33 38 41 43 47 52 56 53 52 53 52 51 50 43 44 45 44 38 28 20
45 45 44 41 35 30 24 23 24 20 15 18 23 19 25 32 30 36 39 40 41 40 41 41 49 50 50 52 53 56 60 60 55 50 44 42 37 36 37 36 29 24 24
44 50 50 48 44 41 35 32 34 28 26 24 23 24 25 26 31 37 42 40 38 38 38 44 46 49 51 57 57 54 54 52 51 47 43 41 37 33 30 27 29 28 26
41 46 49 54 55 51 45 36 41 37 33 29 28 31 33 35 37 41 44 45 48 52 47 47 46 46 48 48 44 42 44 44 45 47 46 44 40 39 37 33 30 24 16
45 50 56 58 61 61 54 48 46 44 43 38 36 38 39 38 39 41 43 45 47 49 46 44 45 43 41 41 38 38 40 43 44 44 45 45 41 35 34 33 27 25 23
51 57 59 55 58 63 64 54 52 53 53 48 44 45 41 40 41 43 44 45 46 44 44 45 44 44 45 44 42 40 41 42 42 40 39 38 40 39 34 31 30 28 24
16 21 39 48 49 56 70 68 65 63 63 59 55 53 49 45 43 43 45 46 47 47 45 43 46 48 49 50 50 49 48 47 46 45 44 40 38 37 37 34 29 27 25
13 18 16 37 54 52 67 79 77 73 77 71 62 56 54 51 48 45 43 44 44 45 46 46 46 46 48 50 51 51 51 51 50 49 48 46 43 39 35 34 31 28 24
13 13 12 17 36 51 56 83 87 89 76 74 69 62 58 56 52 50 50 47 47 47 47 47 49 50 50 51 52 52 51 49 50 49 49 48 45 43 40 38 34 30 28
16 15 13 12 22 40 52 67 93 86 84 83 79 73 66 64 63 61 59 57 56 53 53 53 54 55 56 56 55 54 53 52 51 49 47 46 45 45 44 42 39 36 33
15 18 18 15 20 29 44 60 67 86 90 90 91 85 77 74 74 72 70 69 67 66 64 63 62 61 60 61 61 60 59 59 57 53 50 49 48 48 51 49 46 44 40
14 14 15 17 16 21 32 42 49 64 87 94 94 94 92 86 82 81 79 79 78 77 75 74 74 69 68 69 68 66 67 65 63 62 60 59 57 57 58 58 56 53 47
13 17 12 13 10 16 22 28 40 52 63 81 94 98 97 97 92 92 92 91 88 85 83 82 80 79 80 79 73 73 71 69 68 65 67 70 70 70 72 70 66 61 56
20 20 20 21 19 23 19 25 35 45 55 65 79 95 100 100 101 99 98 96 92 90 88 86 84 80 77 77 73 72 72 72 70 70 73 77 79 79 79 77 72 68 64
Wind_Direction_500mb
237 239 251 263 288 310 319 330 340 351 351 347 354 359 358 354 348 338 343 296 242 228 201 188 201 147 167 172 172 176 166 155 159 162 152 150 158 161 159 163 172 168 169
227 229 242 257 294 312 328 337 348 354 353 356 1 359 0 360 345 353 2 352 183 199 187 179 185 163 163 180 186 181 160 161 163 162 151 132 138 149 161 167 176 174 176
211 216 226 251 296 315 339 347 359 359 359 1 5 13 9 5 7 12 13 49 115 188 186 184 177 185 176 183 189 181 189 163 168 179 168 148 138 129 143 145 164 169 177
192 205 213 246 292 329 353 358 1 354 355 12 29 13 22 24 27 24 31 72 119 140 143 156 124 156 182 189 176 189 180 168 168 170 176 174 162 154 141 142 150 163 163
185 195 200 230 286 338 351 5 7 353 2 26 37 26 35 54 38 71 65 81 96 111 134 143 164 159 159 156 153 183 174 171 173 174 164 156 178 179 154 147 151 154 156
178 189 198 211 273 331 340 358 6 10 23 41 45 35 43 69 76 75 85 89 109 132 153 158 156 165 159 165 169 169 178 186 180 184 186 184 183 187 179 161 158 163 161
184 192 200 198 214 313 347 9 14 24 46 48 48 53 49 71 91 106 76 108 113 125 138 155 161 161 168 180 168 174 185 186 189 187 183 187 200 197 198 184 171 165 167
195 198 204 201 197 308 12 25 29 35 71 54 65 79 82 79 92 94 112 122 123 138 136 155 164 173 158 160 163 178 188 191 189 184 181 188 204 200 202 208 191 166 171
200 199 205 206 195 253 71 51 32 42 83 83 86 89 109 113 91 104 118 136 132 135 144 152 170 178 193 195 185 185 192 202 195 189 189 196 199 197 208 212 204 200 175
202 202 205 209 198 191 157 97 43 47 71 94 120 112 132 136 129 121 117 131 139 148 155 158 166 172 173 181 190 188 191 185 188 189 191 196 194 205 172 202 192 196 199
203 203 205 207 203 189 167 166 134 63 58 94 106 122 137 132 117 137 131 131 141 149 161 164 175 171 162 164 176 195 183 182 187 192 199 201 199 170 179 177 191 195 210
205 205 209 212 207 195 172 169 165 114 68 96 113 117 126 135 125 134 134 138 137 152 166 165 166 172 154 165 172 168 171 186 171 176 183 164 165 175 167 178 189 203 212
209 209 212 215 211 201 187 179 175 180 127 107 103 121 137 158 162 142 137 143 157 165 150 148 145 141 144 143 145 142 145 149 152 157 159 147 154 160 168 177 188 198 215
216 217 219 219 215 208 197 185 174 180 180 152 138 133 126 135 142 134 134 132 134 135 139 141 141 144 148 149 150 144 141 140 141 145 153 154 159 164 165 173 179 181 175
219 223 226 224 218 212 204 192 182 185 194 178 167 158 154 146 135 135 138 139 140 139 139 146 144 139 140 142 141 141 145 149 152 155 157 150 153 153 155 161 161 164 163
233 230 232 231 224 219 212 200 191 186 189 183 172 160 153 147 144 139 142 143 144 143 139 142 145 144 146 147 150 154 156 157 155 154 152 151 154 158 156 152 155 146 148
249 240 239 236 230 223 216 206 195 189 192 189 178 171 162 157 158 154 152 151 153 156 156 155 156 156 155 154 159 161 161 158 158 159 158 156 156 158 158 156 155 158 163
263 248 244 241 235 226 217 207 198 193 191 193 187 183 179 176 175 173 170 170 170 172 172 168 165 164 164 162 162 164 166 165 163 163 162 164 164 165 165 167 168 169 168
279 267 244 236 235 229 218 209 202 199 196 197 195 192 192 191 191 190 186 184 183 183 182 182 177 176 175 172 171 173 175 175 175 174 173 175 178 177 177 180 180 179 182
286 277 269 227 223 223 217 212 208 205 203 200 200 200 200 202 201 202 203 199 197 195 192 191 190 189 187 184 183 184 185 186 186 185 186 186 189 191 190 192 196 197 198
334 318 292 251 227 218 215 214 213 213 208 204 204 206 209 210 209 208 210 212 209 208 207 203 202 198 198 198 196 196 197 200 199 198 198 199 200 201 204 206 206 210 216
291 297 303 269 235 224 220 219 219 219 217 213 212 213 214 214 213 214 213 214 216 218 217 217 214 210 207 207 209 208 209 210 212 214 214 216 217 218 220 218 217 223 229
302 289 284 283 253 235 229 227 226 222 223 222 221 220 220 219 217 217 217 216 218 219 222 223 224 221 220 219 216 216 218 220 220 220 223 227 230 232 233 229 228 231 235
338 308 282 293 281 254 241 237 230 228 226 227 227 226 224 224 222 221 221 223 222 223 223 225 226 226 227 227 226 225 226 227 227 229 231 235 237 239 241 240 238 240 240
329 340 316 284 294 281 271 249 235 228 229 231 231 231 229 228 228 226 226 226 228 230 230 231 232 230 230 232 233 234 234 234 235 235 236 238 240 243 245 245 244 246 245
305 298 300 298 283 272 268 259 247 235 229 230 231 231 232 231 231 231 232 232 233 235 236 236 238 241 242 243 242 242 241 240 240 238 240 243 246 247 250 252 253 252 253
Wind_Speed_850mb
34 29 28 24 23 31 37 42 48 38 36 33 39 43 41 36 30 28 28 16 12 17 31 47 48 52 56 67 72 70 74 72 70 68 56 51 45 41 38 35 31 27 24
41 31 26 21 21 29 34 40 36 34 34 37 36 36 40 34 24 28 25 5 5 13 27 56 49 47 52 58 58 74 81 74 71 72 60 43 47 41 37 30 32 29 25
45 32 23 16 18 24 30 37 29 29 31 39 39 31 31 31 34 32 19 6 7 9 23 41 54 41 53 63 56 73 69 84 70 61 65 52 26 50 38 41 35 29 23
39 29 22 13 14 17 24 31 26 27 31 37 35 31 35 34 35 32 16 10 11 15 32 42 22 63 76 57 49 63 62 80 81 72 59 44 71 50 27 37 37 30 28
35 29 20 11 10 12 16 27 29 23 25 29 29 28 28 30 32 38 37 38 36 39 51 40 54 48 67 66 52 63 84 68 82 69 67 39 63 55 66 50 46 38 32
35 28 19 11 5 9 14 20 24 20 23 23 28 23 26 27 25 28 33 28 34 37 43 46 44 52 60 45 35 53 61 68 71 70 73 62 68 61 64 55 49 39 33
33 28 21 12 4 6 11 15 20 18 19 21 24 19 20 26 21 30 31 37 35 41 42 35 47 57 36 30 30 54 70 72 74 71 69 56 54 66 57 53 58 48 40
34 29 21 13 7 4 7 12 18 16 14 17 20 20 19 20 18 16 27 33 38 34 34 35 46 36 22 27 35 51 66 67 67 67 68 54 52 55 49 40 50 49 34
38 31 24 16 9 1 3 9 15 15 11 5 13 16 17 18 17 19 23 32 34 36 31 33 31 34 33 27 28 43 51 72 62 66 64 57 50 42 38 40 46 37 36
39 35 28 20 12 5 5 6 9 16 9 8 12 13 13 15 19 19 20 26 28 29 33 33 36 35 31 32 38 56 47 60 64 68 67 54 44 37 28 36 48 37 26
42 37 30 24 17 10 7 8 6 13 19 16 17 16 14 11 18 27 27 21 20 20 28 26 29 24 27 33 29 50 55 55 60 60 62 50 51 49 30 37 49 29 21
39 36 33 29 23 17 11 14 13 6 15 17 20 20 22 19 19 24 23 30 27 24 23 30 27 23 25 30 36 48 53 51 51 49 54 47 39 36 38 42 39 31 21
43 42 41 37 29 24 17 19 18 14 11 17 23 17 19 19 19 23 30 28 27 27 29 33 38 41 43 47 52 56 53 52 53 52 51 50 43 44 45 44 38 28 20
45 45 44 41 35 30 24 23 24 20 15 18 23 19 25 32 30 36 39 40 41 40 41 41 49 50 50 52 53 56 60 60 55 50 44 42 37 36 37 36 29 24 24
44 50 50 48 44 41 35 32 34 28 26 24 23 24 25 26 31 37 42 40 38 38 38 44 46 49 51 57 57 54 54 52 51 47 43 41 37 33 30 27 29 28 26
41 46 49 54 55 51 45 36 41 37 33 29 28 31 33 35 37 41 44 45 48 52 47 47 46 46 48 48 44 42 44 44 45 47 46 44 40 39 37 33 30 24 16
45 50 56 58 61 61 54 48 46 44 43 38 36 38 39 38 39 41 43 45 47 49 46 44 45 43 41 41 38 38 40 43 44 44 45 45 41 35 34 33 27 25 23
51 57 59 55 58 63 64 54 52 53 53 48 44 45 41 40 41 43 44 45 46 44 44 45 44 44 45 44 42 40 41 42 42 40 39 38 40 39 34 31 30 28 24
16 21 39 48 49 56 70 68 65 63 63 59 55 53 49 45 43 43 45 46 47 47 45 43 46 48 49 50 50 49 48 47 46 45 44 40 38 37 37 34 29 27 25
13 18 16 37 54 52 67 79 77 73 77 71 62 56 54 51 48 45 43 44 44 45 46 46 46 46 48 50 51 51 51 51 50 49 48 46 43 39 35 34 31 28 24
13 13 12 17 36 51 56 83 87 89 76 74 69 62 58 56 52 50 50 47 47 47 47 47 49 50 50 51 52 52 51 49 50 49 49 48 45 43 40 38 34 30 28
16 15 13 12 22 40 52 67 93 86 84 83 79 73 66 64 63 61 59 57 56 53 53 53 54 55 56 56 55 54 53 52 51 49 47 46 45 45 44 42 39 36 33
15 18 18 15 20 29 44 60 67 86 90 90 91 85 77 74 74 72 70 69 67 66 64 63 62 61 60 61 61 60 59 59 57 53 50 49 48 48 51 49 46 44 40
14 14 15 17 16 21 32 42 49 64 87 94 94 94 92 86 82 81 79 79 78 77 75 74 74 69 68 69 68 66 67 65 63 62 60 59 57 57 58 58 56 53 47
13 17 12 13 10 16 22 28 40 52 63 81 94 98 97 97 92 92 92 91 88 85 83 82 80 79 80 79 73 73 71 69 68 65 67 70 70 70 72 70 66 61 56
20 20 20 21 19 23 19 25 35 45 55 65 79 95 100 100 101 99 98 96 92 90 88 86 84 80 77 77 73 72 72 72 70 70 73 77 79 79 79 77 72 68 64
Wind_Direction_850mb
237 239 251 263 288 310 319 330 340 351 351 347 354 359 358 354 348 338 343 296 242 228 201 188 201 147 167 172 172 176 166 155 159 162 152 150 158 161 159 163 172 168 169
227 229 242 257 294 312 328 337 348 354 353 356 1 359 0 360 345 353 2 352 183 199 187 179 185 163 163 180 186 181 160 161 163 162 151 132 138 149 161 167 176 174 176
211 216 226 251 296 315 339 347 359 359 359 1 5 13 9 5 7 12 13 49 115 188 186 184 177 185 176 183 189 181 189 163 168 179 168 148 138 129 143 145 164 169 177
192 205 213 246 292 329 353 358 1 354 355 12 29 13 22 24 27 24 31 72 119 140 143 156 124 156 182 189 176 189 180 168 168 170 176 174 162 154 141 142 150 163 163
185 195 200 230 286 338 351 5 7 353 2 26 37 26 35 54 38 71 65 81 96 111 134 143 164 159 159 156 153 183 174 171 173 174 164 156 178 179 154 147 151 154 156
178 189 198 211 273 331 340 358 6 10 23 41 45 35 43 69 76 75 85 89 109 132 153 158 156 165 159 165 169 169 178 186 180 184 186 184 183 187 179 161 158 163 161
184 192 200 198 214 313 347 9 14 24 46 48 48 53 49 71 91 106 76 108 113 125 138 155 161 161 168 180 168 174 185 186 189 187 183 187 200 197 198 184 171 165 167
195 198 204 201 197 308 12 25 29 35 71 54 65 79 82 79 92 94 112 122 123 138 136 155 164 173 158 160 163 178 188 191 189 184 181 188 204 200 202 208 191 166 171
200 199 205 206 195 253 71 51 32 42 83 83 86 89 109 113 91 104 118 136 132 135 144 152 170 178 193 195 185 185 192 202 195 189 189 196 199 197 208 212 204 200 175
202 202 205 209 198 191 157 97 43 47 71 94 120 112 132 136 129 121 117 131 139 148 155 158 166 172 173 181 190 188 191 185 188 189 191 196 194 205 172 202 192 196 199
203 203 205 207 203 189 167 166 134 63 58 94 106 122 137 132 117 137 131 131 141 149 161 164 175 171 162 164 176 195 183 182 187 192 199 201 199 170 179 177 191 195 210
205 205 209 212 207 195 172 169 165 114 68 96 113 117 126 135 125 134 134 138 137 152 166 165 166 172 154 165 172 168 171 186 171 176 183 164 165 175 167 178 189 203 212
209 209 212 215 211 201 187 179 175 180 127 107 103 121 137 158 162 142 137 143 157 165 150 148 145 141 144 143 145 142 145 149 152 157 159 147 154 160 168 177 188 198 215
216 217 219 219 215 208 197 185 174 180 180 152 138 133 126 135 142 134 134 132 134 135 139 141 141 144 148 149 150 144 141 140 141 145 153 154 159 164 165 173 179 181 175
219 223 226 224 218 212 204 192 182 185 194 178 167 158 154 146 135 135 138 139 140 139 139 146 144 139 140 142 141 141 145 149 152 155 157 150 153 153 155 161 161 164 163
233 230 232 231 224 219 212 200 191 186 189 183 172 160 153 147 144 139 142 143 144 143 139 142 145 144 146 147 150 154 156 157 155 154 152 151 154 158 156 152 155 146 148
249 240 239 236 230 223 216 206 195 189 192 189 178 171 162 157 158 154 152 151 153 156 156 155 156 156 155 154 159 161 161 158 158 159 158 156 156 158 158 156 155 158 163
263 248 244 241 235 226 217 207 198 193 191 193 187 183 179 176 175 173 170 170 170 172 172 168 165 164 164 162 162 164 166 165 163 163 162 164 164 165 165 167 168 169 168
279 267 244 236 235 229 218 209 202 199 196 197 195 192 192 191 191 190 186 184 183 183 182 182 177 176 175 172 171 173 175 175 175 174 173 175 178 177 177 180 180 179 182
286 277 269 227 223 223 217 212 208 205 203 200 200 200 200 202 201 202 203 199 197 195 192 191 190 189 187 184 183 184 185 186 186 185 186 186 189 191 190 192 196 197 198
334 318 292 251 227 218 215 214 213 213 208 204 204 206 209 210 209 208 210 212 209 208 207 203 202 198 198 198 196 196 197 200 199 198 198 199 200 201 204 206 206 210 216
291 297 303 269 235 224 220 219 219 219 217 213 212 213 214 214 213 214 213 214 216 218 217 217 214 210 207 207 209 208 209 210 212 214 214 216 217 218 220 218 217 223 229
302 289 284 283 253 235 229 227 226 222 223 222 221 220 220 219 217 217 217 216 218 219 222 223 224 221 220 219 216 216 218 220 220 220 223 227 230 232 233 229 228 231 235
338 308 282 293 281 254 241 237 230 228 226 227 227 226 224 224 222 221 221 223 222 223 223 225 226 226 227 227 226 225 226 227 227 229 231 235 237 239 241 240 238 240 240
329 340 316 284 294 281 271 249 235 228 229 231 231 231 229 228 228 226 226 226 228 230 230 231 232 230 230 232 233 234 234 234 235 235 236 238 240 243 245 245 244 246 245
305 298 300 298 283 272 268 259 247 235 229 230 231 231 232 231 231 231 232 232 233 235 236 236 238 241 242 243 242 242 241 240 240 238 240 243 246 247 250 252 253 252 253